TimeEDT,TemperatureF,Dew PointF,Humidity,Sea Level PressureIn,VisibilityMPH,Wind Direction,Wind SpeedMPH,Gust SpeedMPH,PrecipitationIn,Events,Conditions,WindDirDegrees,DateUTC
12:02 AM,75.2,71.6,89,29.99,10.0,SW,5.8,-,N/A,,Overcast,230,2012-10-03 04:02:00
12:14 AM,75.2,71.6,89,29.99,10.0,SW,5.8,-,N/A,,Overcast,230,2012-10-03 04:14:00
12:55 AM,74.7,72.3,92,30.00,10.0,SSW,6.9,-,N/A,,Overcast,210,2012-10-03 04:55:00
1:29 AM,75.2,73.4,94,30.00,10.0,SSW,8.1,-,N/A,,Overcast,210,2012-10-03 05:29:00
1:43 AM,75.2,73.4,94,30.01,10.0,SW,8.1,-,N/A,,Overcast,220,2012-10-03 05:43:00
1:55 AM,75.4,72.7,91,30.01,10.0,SW,8.1,-,N/A,,Overcast,220,2012-10-03 05:55:00
1:57 AM,75.2,73.4,94,30.01,10.0,SW,9.2,-,N/A,,Overcast,220,2012-10-03 05:57:00
2:55 AM,75.7,73.2,92,30.01,10.0,WSW,4.6,-,N/A,,Overcast,240,2012-10-03 06:55:00
3:55 AM,75.7,73.2,92,30.01,10.0,SW,3.5,-,N/A,,Overcast,220,2012-10-03 07:55:00
4:29 AM,75.2,73.4,94,30.01,10.0,SSW,6.9,-,N/A,,Overcast,210,2012-10-03 08:29:00
4:34 AM,75.2,73.4,94,30.02,10.0,SW,6.9,-,N/A,,Mostly Cloudy,220,2012-10-03 08:34:00
4:55 AM,75.9,73.2,91,30.02,10.0,SSW,5.8,-,N/A,,Mostly Cloudy,210,2012-10-03 08:55:00
5:47 AM,75.2,73.4,94,30.04,10.0,SW,6.9,-,N/A,,Mostly Cloudy,230,2012-10-03 09:47:00
5:55 AM,75.7,73.2,92,30.04,10.0,SW,5.8,-,N/A,,Mostly Cloudy,220,2012-10-03 09:55:00
5:58 AM,75.2,73.4,94,30.04,10.0,SSW,5.8,-,N/A,,Mostly Cloudy,210,2012-10-03 09:58:00
6:06 AM,75.2,73.4,94,30.04,10.0,SSW,4.6,-,N/A,,Mostly Cloudy,210,2012-10-03 10:06:00
6:07 AM,75.2,73.4,94,30.04,10.0,SSW,4.6,-,N/A,,Mostly Cloudy,210,2012-10-03 10:07:00
6:09 AM,75.2,73.4,94,30.04,10.0,SSW,4.6,-,N/A,,Mostly Cloudy,200,2012-10-03 10:09:00
6:28 AM,75.2,73.4,94,30.05,10.0,SW,4.6,-,N/A,,Mostly Cloudy,220,2012-10-03 10:28:00
6:33 AM,75.2,73.4,94,30.05,10.0,SSW,4.6,-,N/A,,Mostly Cloudy,210,2012-10-03 10:33:00
6:34 AM,75.2,73.4,94,30.05,10.0,SSW,3.5,-,N/A,,Mostly Cloudy,210,2012-10-03 10:34:00
6:35 AM,75.2,73.4,94,30.05,10.0,SW,4.6,-,N/A,,Mostly Cloudy,220,2012-10-03 10:35:00
6:39 AM,75.2,73.4,94,30.05,10.0,SW,4.6,-,N/A,,Mostly Cloudy,220,2012-10-03 10:39:00
6:55 AM,75.7,73.2,92,30.06,10.0,SW,4.6,-,N/A,,Mostly Cloudy,230,2012-10-03 10:55:00
6:59 AM,75.2,73.4,94,30.06,10.0,SW,4.6,-,N/A,,Mostly Cloudy,220,2012-10-03 10:59:00
7:11 AM,75.2,73.4,94,30.06,10.0,SW,6.9,-,N/A,,Mostly Cloudy,220,2012-10-03 11:11:00
7:47 AM,75.2,73.4,94,30.06,10.0,SW,5.8,-,N/A,,Scattered Clouds,230,2012-10-03 11:47:00
7:55 AM,75.7,73.0,91,30.07,10.0,WSW,4.6,-,N/A,,Partly Cloudy,240,2012-10-03 11:55:00
8:18 AM,75.2,73.4,94,30.08,10.0,WSW,5.8,-,N/A,,Partly Cloudy,240,2012-10-03 12:18:00
8:55 AM,76.3,73.6,91,30.09,10.0,SW,4.6,-,N/A,,Scattered Clouds,230,2012-10-03 12:55:00
9:02 AM,77.0,73.4,89,30.09,10.0,SW,4.6,-,N/A,,Mostly Cloudy,220,2012-10-03 13:02:00
9:05 AM,77.0,73.4,89,30.09,10.0,SW,5.8,-,N/A,Rain,Light Rain,220,2012-10-03 13:05:00
9:08 AM,77.0,73.4,89,30.09,10.0,SW,6.9,-,N/A,Rain,Light Rain,230,2012-10-03 13:08:00
9:15 AM,77.0,73.4,89,30.09,10.0,SW,4.6,-,N/A,,Scattered Clouds,220,2012-10-03 13:15:00
9:16 AM,77.0,73.4,89,30.09,10.0,SW,5.8,-,N/A,,Mostly Cloudy,220,2012-10-03 13:16:00
9:55 AM,77.5,73.8,88,30.10,10.0,SSW,3.5,-,0.00,,Mostly Cloudy,210,2012-10-03 13:55:00
9:58 AM,77.0,73.4,89,30.10,10.0,SW,5.8,-,N/A,,Mostly Cloudy,230,2012-10-03 13:58:00
10:01 AM,77.0,73.4,89,30.10,10.0,SW,4.6,-,N/A,,Mostly Cloudy,220,2012-10-03 14:01:00
10:05 AM,78.8,73.4,83,30.10,10.0,SW,6.9,-,N/A,,Mostly Cloudy,220,2012-10-03 14:05:00
10:08 AM,78.8,73.4,83,30.10,10.0,WSW,6.9,-,N/A,,Mostly Cloudy,240,2012-10-03 14:08:00
10:55 AM,79.0,74.1,85,30.11,10.0,WSW,4.6,-,N/A,,Mostly Cloudy,250,2012-10-03 14:55:00
11:11 AM,80.6,73.4,79,30.11,10.0,SW,4.6,-,N/A,,Mostly Cloudy,220,2012-10-03 15:11:00
11:24 AM,80.6,73.4,79,30.11,10.0,Variable,4.6,-,N/A,,Mostly Cloudy,0,2012-10-03 15:24:00
11:25 AM,80.6,73.4,79,30.11,10.0,Variable,4.6,-,N/A,,Scattered Clouds,0,2012-10-03 15:25:00
11:26 AM,80.6,73.4,79,30.11,10.0,SSW,6.9,-,N/A,,Mostly Cloudy,210,2012-10-03 15:26:00
11:30 AM,80.6,73.4,79,30.11,10.0,SW,6.9,-,N/A,,Mostly Cloudy,230,2012-10-03 15:30:00
11:55 AM,81.0,73.0,77,30.11,10.0,Variable,5.8,-,N/A,,Scattered Clouds,0,2012-10-03 15:55:00
12:55 PM,82.6,71.2,68,30.10,10.0,WSW,9.2,-,N/A,,Scattered Clouds,240,2012-10-03 16:55:00
1:55 PM,84.4,69.6,61,30.08,10.0,SSW,10.4,-,N/A,,Partly Cloudy,200,2012-10-03 17:55:00
2:55 PM,85.5,68.7,57,30.07,10.0,WSW,5.8,-,N/A,,Partly Cloudy,240,2012-10-03 18:55:00
3:55 PM,85.5,68.5,57,30.07,10.0,West,8.1,-,N/A,,Partly Cloudy,260,2012-10-03 19:55:00
4:55 PM,83.3,68.7,61,30.08,10.0,WSW,6.9,-,N/A,,Partly Cloudy,250,2012-10-03 20:55:00
5:55 PM,83.1,68.4,61,30.09,10.0,SW,9.2,-,N/A,,Partly Cloudy,230,2012-10-03 21:55:00
6:55 PM,79.7,70.2,73,30.11,10.0,WSW,5.8,-,N/A,,Scattered Clouds,250,2012-10-03 22:55:00
7:55 PM,77.9,70.7,78,30.12,10.0,WSW,5.8,-,N/A,,Mostly Cloudy,240,2012-10-03 23:55:00
8:55 PM,77.5,70.7,79,30.14,10.0,SW,4.6,-,N/A,,Mostly Cloudy,230,2012-10-04 00:55:00
9:55 PM,77.0,70.0,79,30.16,10.0,WSW,5.8,-,N/A,,Mostly Cloudy,240,2012-10-04 01:55:00
10:55 PM,76.1,70.3,82,30.18,10.0,WSW,6.9,-,N/A,,Overcast,240,2012-10-04 02:55:00
11:55 PM,75.4,68.9,80,30.18,10.0,WSW,5.8,-,N/A,,Overcast,250,2012-10-04 03:55:00